Starlink 3541

operational
NORAD ID: 51854 Int'l Des: 2022-022 Owner: SPXS Country: US Constellation: starlink
LEOCIRCULAR

Über Starlink 3541

Beschreibung wird geladen...

Live-Position

3D-Globus wird geladen...

Nächste Überflüge

Höhenverlauf

Altitude vs Time

uPlot chart will show altitude changes over time

Zweizeiliger Elementsatz

1 51854U 22022C 25351.30784793 .00016869 00000-0 10521-2 0 9999
2 51854 53.2168 28.8845 0002098 51.0962 309.0217 15.09644610210581
Epoch: 17. Dez. 2025 • Age: 11 hours

Aktueller Status

Höhe 544.2 km
Geschwindigkeit 7.59 km/s
Subsatellitenpunkt -24.71°S, 4.6°E
Startdatum 3. März 2022
Alter 3.7 years
Typ internet

Technische Details

Klassifizierung Payload
Masse 297.00 kg
Trockenmasse 275.00 kg
Gesamtmasse 297.00 kg
Länge 0.20 m
Durchmesser 2.80 m
Spannweite 9.00 m
Form Box + pan
Hersteller SPXS
Bus-Typ Starlink
Phasenstatus In Orbit
Besitzer/Staat SPXS/US

Große Konstellationen

Loading constellations...